Wetbulb
73.70 75.36 76.20 76.78 76.44 75.16 74.86 73.82 72.12 70.95 72.43 73.92 74.91 75.95 75.83 75.90 75.77 75.64 75.09 71.34 70.65 70.31 69.78 69.61 70.18 71.05 71.93 72.70 73.28 73.55 74.04 73.99 74.14 74.11 74.16 74.60 75.09 75.94
76.69 75.41 76.77 76.72 75.90 76.23 74.96 74.32 74.04 72.21 72.47 73.85 74.23 75.55 76.29 75.82 76.25 76.29 75.96 72.96 70.47 69.84 69.47 69.12 69.42 70.10 70.75 71.15 71.44 71.81 71.96 72.14 72.34 72.34 72.49 72.51 72.77 73.27
75.72 76.06 75.95 76.22 75.74 78.26 76.68 74.94 74.20 73.66 75.36 73.65 74.77 76.73 77.32 76.45 76.34 76.81 76.87 76.58 75.75 69.66 69.56 69.15 68.82 69.03 69.65 70.08 70.22 70.26 70.44 70.65 70.82 71.11 71.40 71.47 71.65 71.94
74.95 72.62 73.91 76.18 75.77 77.32 75.06 77.77 77.02 75.26 76.46 72.51 75.45 74.85 77.34 77.82 77.53 77.31 76.39 76.26 76.49 71.44 69.53 68.82 68.16 68.00 68.05 68.16 68.19 67.99 67.67 67.87 67.92 68.41 69.26 69.78 70.32 70.68
74.68 71.93 72.51 74.61 75.46 74.19 75.36 74.97 74.56 74.56 74.87 73.22 73.61 76.39 76.37 77.07 77.16 77.88 77.78 77.23 76.53 71.54 69.32 68.58 68.00 67.78 67.22 66.53 65.98 65.19 63.90 63.79 63.90 64.08 64.74 65.71 67.18 68.46
73.03 70.26 71.33 73.82 74.71 75.26 75.37 75.94 77.22 74.69 77.03 76.00 73.15 74.44 77.14 77.24 76.52 75.24 76.70 79.75 79.25 76.87 73.23 72.66 70.15 68.79 67.76 66.32 66.30 65.87 62.88 60.97 60.24 60.48 60.85 61.49 63.05 64.57
69.65 70.42 71.26 71.45 70.26 71.36 72.83 74.94 74.85 74.63 72.62 74.96 71.99 72.31 75.12 75.90 75.42 73.92 76.79 74.84 76.44 76.02 74.54 73.68 73.53 71.80 71.29 66.54 68.67 66.40 63.80 62.83 61.52 61.03 59.68 58.80 59.30 60.83
69.89 70.03 70.28 69.29 68.68 67.45 67.49 68.15 73.92 74.66 73.81 72.83 75.96 73.11 75.17 76.47 76.36 77.78 74.86 75.30 73.59 74.66 73.45 71.20 71.81 71.93 73.83 73.66 64.07 63.67 62.79 62.09 61.35 60.97 60.80 60.45 60.89 60.79
71.94 69.88 68.86 69.66 68.86 68.89 66.57 66.86 66.80 66.33 67.53 75.83 74.79 75.76 75.18 75.54 75.81 75.71 75.74 75.81 75.66 73.37 73.53 71.22 71.90 71.00 72.59 67.18 63.23 62.42 61.56 60.91 60.17 59.48 59.44 59.41 59.37 59.84
73.42 72.30 68.62 67.24 68.25 69.35 69.17 69.83 71.27 71.25 71.82 72.43 74.44 74.37 75.62 76.47 75.59 76.41 74.88 74.77 74.14 73.68 74.13 70.06 71.48 71.72 72.60 68.77 62.95 61.49 60.56 59.76 59.45 58.78 58.10 57.44 57.38 57.24
73.45 73.01 71.86 70.83 63.12 63.42 70.05 69.31 69.52 69.92 62.98 62.69 64.84 65.15 65.34 65.44 69.40 72.23 70.78 70.11 69.09 69.36 71.24 69.77 70.47 69.28 70.80 69.84 65.44 61.12 59.53 57.81 57.21 57.58 57.76 56.84 55.87 55.91
73.46 73.10 64.91 69.67 58.72 58.54 67.52 67.07 65.35 66.15 68.18 67.28 67.72 66.19 66.30 66.12 63.64 70.84 69.26 66.36 65.22 64.97 69.55 66.46 66.11 67.45 65.94 68.59 68.82 64.00 65.17 56.51 56.08 55.94 56.00 55.50 53.34 66.33
69.92 70.69 70.50 57.66 56.10 56.19 56.41 66.80 64.63 65.53 64.93 67.33 67.89 68.57 69.61 70.11 69.21 69.87 70.48 68.50 66.29 66.00 69.19 68.32 67.29 66.84 65.72 65.54 67.31 67.79 67.07 63.37 64.79 61.19 53.84 53.77 53.39 55.48
69.61 69.83 67.95 55.50 54.11 54.82 57.16 57.33 57.39 59.52 65.05 65.28 66.19 66.55 67.29 67.73 68.51 69.35 70.36 70.37 70.14 69.09 69.09 69.98 66.02 65.02 64.21 63.38 62.80 65.96 65.36 65.53 64.54 63.38 62.78 56.25 53.92 54.00
69.26 65.41 55.97 52.87 53.46 55.57 56.05 56.36 55.17 62.17 63.20 63.47 64.03 65.49 66.79 68.09 69.55 69.00 69.30 69.52 68.72 68.46 68.10 69.05 66.53 67.00 64.52 62.19 61.92 64.01 62.67 63.17 63.35 62.63 62.78 62.70 63.03 62.89
61.70 66.01 62.50 60.11 58.56 61.45 59.62 58.92 61.49 63.33 63.54 62.45 63.14 65.08 67.06 67.26 66.81 66.92 65.41 65.01 64.17 64.44 66.97 67.99 68.19 66.19 62.02 61.88 61.62 61.19 62.85 60.39 62.45 62.68 63.10 62.47 62.36 62.30
64.88 67.15 64.37 63.98 63.54 62.88 61.86 62.04 62.38 62.95 62.59 65.17 64.97 64.84 65.16 65.46 65.28 65.38 64.05 62.67 60.44 61.47 62.88 64.36 66.26 66.18 64.15 64.61 60.40 61.11 61.59 61.40 62.80 63.02 63.01 60.83 60.93 60.84
63.86 64.24 63.57 63.82 63.12 61.92 59.50 60.68 60.85 60.83 61.49 63.12 63.56 63.70 63.19 62.69 62.57 63.20 62.76 60.66 58.76 59.95 61.78 62.76 62.55 60.89 60.74 62.28 61.16 60.87 61.39 61.04 61.49 63.03 62.67 60.34 60.37 61.63
61.49 62.59 63.33 63.37 62.67 61.21 60.40 59.76 59.70 59.91 60.07 59.39 60.69 60.97 61.76 62.12 60.93 61.11 60.80 59.69 58.66 59.13 60.47 62.36 60.99 58.97 55.55 53.85 60.39 55.47 61.01 60.66 60.87 60.41 60.94 60.38 59.97 61.74
59.96 61.72 61.63 62.04 61.53 60.57 61.04 60.40 60.85 60.20 60.85 58.42 59.35 60.41 60.96 60.30 60.14 59.48 59.09 58.76 58.31 58.12 58.06 59.72 59.93 59.48 57.66 57.64 58.04 61.13 51.16 62.62 60.44 59.97 59.85 60.72 60.09 54.44
59.92 59.90 60.45 60.19 60.78 60.68 60.70 60.47 61.24 61.73 62.51 62.10 61.10 60.54 60.14 59.32 59.11 59.52 58.96 53.64 55.44 58.63 57.76 58.30 60.35 58.33 61.63 62.07 58.29 59.15 60.37 50.54 55.50 61.58 61.67 58.82 58.02 58.28
59.37 59.51 61.13 62.20 61.15 60.37 59.68 59.64 59.34 59.97 62.61 63.00 62.08 61.21 60.57 60.06 59.17 58.95 58.60 58.05 57.75 57.70 58.50 59.47 62.08 60.84 59.45 58.24 56.65 57.69 58.63 60.04 55.41 53.51 53.55 54.34 58.20 55.69
59.94 61.98 63.86 62.10 60.31 59.99 60.28 59.81 60.39 61.22 62.23 62.73 62.11 61.19 60.39 59.14 59.71 59.49 59.08 58.84 58.73 58.45 58.25 58.28 59.07 60.17 58.93 58.01 56.55 57.00 58.87 59.22 58.08 56.88 57.58 53.68 54.37 54.41
MSLP
1013.95 1013.92 1014.12 1014.17 1014.52 1013.29 1013.27 1013.27 1013.72 1014.33 1014.57 1014.60 1014.26 1014.73 1015.05 1015.61 1016.19 1016.96 1017.43 1017.97 1018.80 1019.33 1019.74 1020.10 1020.39 1020.59 1020.76 1020.90 1021.01 1021.15 1021.27 1021.37 1021.45 1021.47 1021.45 1021.42 1021.36 1021.31
1013.43 1013.40 1013.59 1013.60 1014.14 1013.75 1013.23 1013.62 1013.29 1013.22 1013.82 1013.02 1013.62 1013.98 1014.62 1014.97 1015.66 1016.47 1016.57 1017.16 1017.89 1018.38 1018.80 1019.24 1019.63 1019.88 1020.00 1020.13 1020.25 1020.39 1020.56 1020.72 1020.82 1020.83 1020.87 1020.88 1020.84 1020.86
1012.99 1013.00 1012.97 1013.15 1013.77 1013.73 1013.10 1012.99 1013.07 1013.26 1013.63 1013.28 1012.93 1013.80 1014.56 1014.89 1014.82 1015.94 1016.14 1016.24 1016.53 1017.45 1017.91 1018.29 1018.71 1019.09 1019.33 1019.48 1019.67 1019.83 1019.97 1020.10 1020.19 1020.22 1020.26 1020.24 1020.14 1020.07
1012.25 1012.88 1012.95 1012.97 1013.28 1013.45 1013.03 1012.97 1013.33 1013.23 1013.75 1013.64 1013.41 1013.63 1014.56 1014.90 1014.86 1015.23 1015.26 1015.11 1015.17 1016.08 1016.94 1017.48 1017.96 1018.35 1018.55 1018.76 1019.00 1019.18 1019.32 1019.45 1019.58 1019.61 1019.57 1019.75 1019.67 1019.65
1012.29 1012.90 1013.09 1013.04 1013.01 1013.04 1012.76 1012.38 1012.63 1013.33 1013.66 1013.42 1013.53 1013.95 1014.34 1014.19 1014.67 1014.73 1014.93 1014.56 1014.39 1016.00 1016.49 1016.92 1017.26 1017.54 1017.89 1018.21 1018.43 1018.61 1018.80 1019.00 1019.04 1019.14 1019.18 1019.17 1019.16 1019.13
1012.74 1013.20 1013.27 1013.09 1013.23 1013.20 1013.20 1012.86 1012.85 1012.72 1013.47 1013.89 1013.72 1014.03 1014.27 1013.93 1013.93 1013.96 1014.61 1014.82 1014.76 1015.05 1016.05 1016.26 1016.77 1017.21 1017.59 1017.89 1018.24 1018.37 1018.46 1018.60 1018.68 1018.77 1018.81 1018.84 1018.71 1018.68
1013.01 1013.16 1013.08 1013.32 1013.37 1013.47 1013.52 1013.44 1013.47 1013.45 1013.47 1013.40 1013.62 1013.42 1013.83 1014.00 1014.13 1013.96 1014.34 1014.62 1014.88 1015.02 1015.39 1015.77 1016.06 1016.59 1016.96 1017.56 1017.49 1017.96 1018.20 1018.36 1018.42 1018.43 1018.45 1018.41 1018.40 1018.37
1012.91 1013.17 1013.45 1013.79 1013.89 1013.83 1013.62 1013.52 1013.41 1013.48 1013.52 1013.13 1013.35 1013.13 1013.29 1013.71 1013.98 1013.72 1014.11 1014.48 1014.53 1014.91 1015.27 1015.71 1016.08 1015.91 1015.47 1016.01 1017.70 1018.01 1018.17 1018.34 1018.34 1018.33 1018.29 1018.22 1018.16 1018.16
1012.23 1013.01 1013.37 1013.78 1014.19 1014.22 1013.84 1013.83 1013.78 1013.67 1013.82 1013.40 1013.29 1013.31 1013.34 1013.54 1013.87 1014.04 1014.17 1014.45 1014.37 1014.58 1014.99 1014.84 1015.73 1015.77 1015.92 1017.18 1017.96 1018.21 1018.25 1018.29 1018.34 1018.38 1018.28 1018.22 1018.13 1018.08
1011.79 1012.63 1013.24 1013.60 1013.69 1013.82 1013.84 1013.56 1013.40 1013.60 1013.75 1013.48 1013.38 1013.51 1013.65 1013.65 1013.57 1013.73 1014.10 1014.51 1014.58 1014.26 1014.86 1014.52 1015.08 1015.28 1015.88 1016.63 1017.84 1018.33 1018.40 1018.35 1018.36 1018.38 1018.38 1018.34 1018.26 1018.18
1011.51 1012.05 1012.60 1013.14 1013.74 1013.98 1013.76 1013.56 1013.60 1013.56 1014.05 1014.22 1014.20 1014.23 1014.16 1014.04 1013.89 1013.88 1013.99 1013.89 1013.54 1013.66 1014.63 1014.47 1014.07 1014.61 1014.94 1015.51 1017.13 1017.96 1018.37 1018.49 1018.42 1018.40 1018.37 1018.30 1018.30 1018.26
1010.75 1011.61 1012.55 1012.56 1013.67 1013.96 1013.77 1013.64 1013.61 1013.51 1013.70 1013.84 1014.36 1014.57 1014.39 1014.36 1014.52 1014.05 1013.36 1013.32 1013.17 1013.15 1013.79 1014.44 1013.86 1014.20 1014.40 1015.15 1016.28 1017.41 1017.59 1018.29 1018.36 1018.32 1018.25 1018.17 1018.09 1017.35
1009.93 1010.70 1011.71 1012.97 1013.29 1013.59 1013.77 1013.47 1013.64 1013.47 1013.61 1013.53 1013.31 1013.32 1013.45 1013.56 1013.83 1013.90 1013.72 1013.52 1013.18 1013.34 1014.39 1014.43 1014.03 1014.08 1014.56 1014.54 1015.64 1015.99 1016.30 1017.18 1017.22 1017.91 1018.22 1018.13 1018.01 1017.45
1009.87 1010.04 1011.17 1012.70 1013.47 1013.62 1013.70 1013.86 1013.92 1013.85 1013.05 1012.92 1012.60 1012.50 1012.62 1012.68 1012.95 1013.50 1013.92 1014.01 1014.21 1014.50 1014.80 1015.01 1014.62 1014.60 1014.54 1014.58 1014.76 1015.42 1016.19 1016.59 1016.68 1016.83 1017.36 1018.15 1017.98 1017.65
1010.11 1010.45 1011.38 1012.72 1013.43 1013.46 1013.60 1013.80 1013.83 1013.38 1012.55 1012.40 1012.19 1012.12 1012.25 1012.35 1012.91 1014.03 1014.53 1014.84 1015.16 1015.18 1015.10 1015.44 1015.30 1015.02 1015.22 1015.00 1014.77 1015.22 1015.82 1016.55 1016.78 1016.85 1016.94 1017.03 1017.15 1017.12
1010.94 1010.97 1011.79 1012.48 1012.75 1012.79 1013.24 1013.60 1013.44 1012.87 1012.65 1012.27 1011.97 1012.06 1012.45 1012.88 1013.50 1013.63 1013.95 1014.39 1014.25 1014.65 1015.41 1015.54 1015.65 1015.68 1015.22 1015.25 1015.40 1015.52 1015.81 1015.87 1016.42 1016.60 1016.65 1017.05 1017.36 1017.44
1009.88 1010.14 1011.33 1011.61 1011.87 1012.18 1012.55 1012.74 1012.96 1013.09 1013.07 1012.51 1012.38 1012.44 1012.74 1012.92 1013.05 1013.74 1013.95 1014.17 1014.32 1014.14 1014.66 1015.55 1015.61 1015.67 1015.67 1015.64 1015.41 1015.39 1015.56 1015.73 1016.03 1016.46 1017.10 1016.96 1017.29 1017.30
1009.69 1009.60 1010.09 1010.42 1010.86 1011.39 1011.94 1012.29 1012.83 1013.01 1013.00 1012.84 1012.62 1012.42 1012.55 1013.02 1013.27 1013.39 1013.51 1013.65 1013.84 1013.67 1013.80 1014.33 1015.12 1015.12 1015.39 1015.71 1016.03 1015.23 1015.52 1015.80 1016.00 1016.71 1016.72 1016.39 1016.52 1016.77
1009.22 1009.00 1009.15 1009.47 1009.84 1010.53 1010.93 1011.56 1012.05 1012.71 1013.00 1013.00 1012.99 1013.05 1013.07 1012.94 1013.03 1013.20 1013.34 1013.53 1013.58 1013.60 1013.55 1013.65 1014.23 1014.50 1014.41 1014.53 1014.94 1015.96 1015.30 1015.31 1015.46 1015.98 1016.08 1015.98 1015.77 1015.78
1008.83 1008.43 1008.61 1008.93 1009.09 1009.66 1010.17 1010.70 1011.33 1011.98 1012.29 1012.86 1012.81 1012.45 1012.26 1012.34 1012.39 1012.63 1012.86 1013.02 1012.97 1013.35 1013.78 1014.02 1014.13 1014.06 1013.93 1013.46 1013.53 1014.68 1015.71 1015.31 1015.11 1015.29 1015.44 1015.75 1016.19 1016.75
1008.78 1008.75 1008.78 1008.77 1008.96 1009.24 1009.61 1009.90 1010.12 1010.27 1010.52 1010.88 1011.26 1011.38 1011.38 1011.68 1011.64 1011.80 1012.08 1012.61 1012.76 1012.82 1012.83 1012.82 1013.16 1014.01 1013.89 1014.02 1014.01 1013.78 1015.13 1015.76 1016.05 1015.63 1015.26 1015.40 1015.59 1015.86
1008.25 1008.88 1008.35 1008.23 1008.40 1009.04 1009.32 1009.56 1009.80 1009.97 1010.04 1010.37 1010.61 1010.85 1010.96 1010.93 1011.05 1011.28 1011.60 1011.55 1012.02 1012.39 1012.27 1012.43 1013.24 1013.45 1013.73 1013.79 1013.48 1013.30 1013.58 1014.69 1015.77 1015.95 1015.95 1015.87 1015.40 1015.40
1008.18 1008.11 1008.18 1008.51 1009.03 1009.47 1009.40 1009.50 1009.64 1009.55 1009.62 1009.79 1010.15 1010.42 1010.59 1010.70 1010.77 1010.73 1010.94 1011.31 1011.34 1011.60 1011.85 1011.94 1012.11 1012.84 1013.12 1013.28 1013.28 1012.98 1012.87 1013.59 1014.61 1015.09 1015.18 1015.53 1015.76 1016.03
Wind_Speed
13 13 10 7 7 8 6 6 7 6 8 9 6 12 11 11 11 14 15 18 19 18 17 16 17 17 17 17 17 17 17 17 17 17 17 17 19 20
8 13 11 9 7 9 7 4 5 6 4 5 10 12 11 10 11 13 14 11 19 18 18 18 18 18 18 17 17 17 17 16 16 16 16 16 17 17
12 12 12 11 7 8 7 7 6 6 4 6 9 9 11 11 10 12 11 12 12 18 18 17 16 16 15 16 16 16 16 15 16 17 17 17 18 17
12 9 9 9 9 5 9 6 6 5 3 6 3 7 8 11 10 11 11 12 12 19 18 15 15 14 15 15 14 13 13 13 13 14 15 15 14 15
7 2 6 10 8 7 9 7 8 6 6 5 5 3 4 8 10 9 10 11 10 11 9 10 12 14 13 12 12 13 11 11 11 10 11 12 14 14
3 2 7 7 7 7 7 9 6 6 7 4 5 5 4 8 9 10 8 7 5 5 3 2 8 11 9 8 7 9 9 9 9 10 9 10 11 11
2 3 1 5 5 3 4 5 6 7 6 7 7 8 7 4 6 7 6 7 6 5 5 5 6 5 7 9 6 5 3 1 2 2 5 7 9 9
7 3 3 4 3 3 3 4 3 7 7 7 6 7 7 6 5 5 6 4 6 7 7 5 5 4 4 3 10 8 7 5 5 5 4 5 5 4
9 7 6 4 6 5 5 4 1 3 3 7 7 7 7 7 7 7 7 6 4 5 6 6 6 6 4 7 8 6 7 6 6 5 5 5 5 4
9 10 9 9 6 5 5 4 4 4 5 5 4 4 5 5 5 5 6 5 3 3 2 5 5 5 3 8 10 6 6 5 5 5 4 4 4 6
9 10 9 10 8 5 6 5 5 5 5 3 4 5 4 6 2 6 7 7 7 6 7 7 6 5 8 6 9 11 6 5 5 4 3 3 1 7
8 8 3 6 11 8 5 5 5 6 6 5 5 5 6 4 2 6 5 7 7 5 6 6 7 5 6 7 9 7 7 7 5 4 3 4 4 8
6 8 7 9 9 5 2 4 4 5 4 6 7 7 7 8 7 7 5 6 5 6 8 5 3 5 6 3 5 8 4 8 7 6 4 4 4 8
6 6 8 13 9 8 7 7 3 5 6 7 6 7 7 7 7 6 4 4 3 6 7 2 4 5 6 6 6 7 5 3 4 3 6 4 4 10
5 5 18 12 8 7 6 7 7 7 6 7 7 7 6 5 6 5 5 4 4 2 4 5 6 2 4 6 5 3 6 5 5 5 5 5 2 4
7 7 7 6 3 3 9 7 6 5 4 7 6 5 5 5 7 7 7 7 6 6 4 5 5 3 5 4 4 5 6 6 6 5 4 4 3 2
10 8 8 9 8 7 6 7 6 3 3 4 4 5 6 7 6 6 5 6 6 6 7 7 6 4 5 4 6 6 6 6 4 6 5 6 5 4
8 8 9 9 9 8 7 6 5 5 6 4 5 7 6 6 6 6 5 5 6 5 6 8 8 7 6 7 6 6 6 7 6 6 8 8 8 7
9 9 9 10 10 9 7 6 7 6 1 1 1 3 2 8 6 7 7 6 6 6 5 6 6 7 8 8 7 9 7 9 8 8 9 9 8 9
10 10 9 9 8 8 8 8 8 8 8 7 8 9 9 8 8 8 7 8 8 8 8 8 8 9 9 8 6 9 11 8 8 8 9 7 4 6
9 8 7 9 8 9 9 9 9 10 10 10 10 9 8 8 9 8 9 7 6 8 8 9 9 1 7 3 6 6 9 7 4 6 7 8 8 9
8 9 9 8 7 6 6 7 8 10 10 10 9 9 9 8 9 9 9 9 10 10 9 8 7 7 9 9 9 10 8 9 6 4 4 3 5 8
1 5 1 0 3 4 5 6 8 9 9 9 9 9 8 9 9 8 8 9 9 9 10 9 8 8 9 10 9 10 11 9 9 9 9 9 4 1
Wind_Direction
227 232 225 207 231 237 230 249 187 202 207 202 194 205 205 207 209 204 214 188 197 207 213 219 224 228 231 234 236 238 242 245 248 251 254 256 259 261
224 218 213 204 210 252 217 204 245 235 207 222 211 171 203 202 186 215 213 189 194 204 211 216 219 223 225 229 233 238 242 247 250 252 256 259 258 260
229 218 209 203 202 225 211 206 213 221 205 279 168 149 184 206 182 197 218 210 200 198 208 215 219 220 221 225 230 234 237 240 244 249 253 254 253 252
220 206 219 210 212 220 215 219 173 230 192 193 253 158 201 194 207 191 213 215 219 181 198 206 214 220 225 226 228 227 231 236 243 246 251 263 262 259
203 189 229 221 201 209 247 195 210 218 212 232 187 188 191 197 195 205 208 233 218 136 182 204 207 216 221 222 222 227 236 244 252 265 263 263 262 261
155 337 280 240 222 207 247 238 273 230 205 211 201 180 194 194 199 198 199 205 205 186 142 57 169 205 218 218 222 222 225 234 244 245 249 248 253 256
85 307 183 354 349 296 234 229 230 232 250 211 209 203 203 198 199 226 186 204 186 213 207 178 172 183 175 191 168 173 149 93 5 308 272 266 261 258
157 147 61 26 332 254 128 72 213 222 227 235 242 233 215 213 213 243 205 197 202 187 198 175 218 211 219 122 79 90 97 94 80 64 42 20 358 307
183 167 159 163 187 208 132 160 71 65 13 253 245 237 222 217 210 219 213 226 235 138 216 197 185 203 173 113 88 102 95 82 74 63 49 39 33 31
188 175 175 177 184 183 203 197 200 196 204 242 212 227 220 195 212 207 191 168 167 193 201 220 176 177 170 123 120 107 95 90 80 67 53 53 70 90
178 183 187 185 159 196 202 204 219 225 120 8 38 49 50 40 25 181 186 204 214 198 169 253 217 202 192 199 141 132 120 104 101 85 58 43 148 170
183 182 89 192 163 188 228 219 231 242 241 191 189 179 186 149 303 257 223 223 231 211 155 228 226 190 214 211 143 167 164 150 150 128 81 34 7 242
221 188 184 133 145 157 295 238 253 286 184 239 226 208 198 185 200 211 231 267 237 234 115 219 218 203 245 149 197 204 229 146 188 157 129 60 16 11
232 212 131 145 163 164 197 116 97 273 227 218 212 209 198 205 194 175 165 259 27 2 102 252 271 244 241 233 231 165 191 195 214 163 119 123 63 53
263 57 114 134 155 161 149 152 189 215 226 223 220 215 210 200 128 145 179 165 179 164 177 202 265 207 245 252 241 194 170 181 205 181 180 182 138 154
159 141 138 179 219 72 147 184 220 235 247 230 218 211 195 156 201 194 194 197 213 163 179 201 217 220 210 233 231 205 200 182 187 198 180 162 168 111
189 173 187 196 199 197 208 205 201 212 242 272 199 188 194 194 195 183 203 195 222 211 176 175 174 224 260 316 218 233 195 213 191 160 226 186 204 179
197 197 207 207 213 201 205 210 214 199 209 221 216 203 196 205 213 203 211 215 227 225 209 182 179 190 200 206 258 239 212 219 201 188 226 216 197 201
218 219 219 209 203 201 202 210 205 208 195 212 168 217 215 215 192 213 213 215 234 245 224 220 202 212 214 226 164 233 230 207 197 216 213 225 247 184
212 218 215 215 206 200 198 201 202 197 203 200 220 214 209 217 212 221 216 222 212 205 228 221 216 221 230 238 224 179 200 259 207 213 216 231 109 63
212 219 206 217 200 208 213 217 219 212 211 206 214 219 211 217 218 218 222 228 234 232 223 221 216 204 249 225 246 192 175 211 252 279 213 226 203 203
192 221 227 219 217 217 218 224 223 224 213 216 223 223 223 219 220 216 231 229 201 234 230 241 153 191 220 230 242 240 217 167 198 261 280 246 297 236
16 234 173 246 232 234 233 234 238 234 220 220 222 224 225 225 224 227 227 224 238 215 231 227 224 199 230 232 250 252 226 184 195 208 217 197 215 253